TimeCDT,TemperatureF,Dew PointF,Humidity,Sea Level PressureIn,VisibilityMPH,Wind Direction,Wind SpeedMPH,Gust SpeedMPH,PrecipitationIn,Events,Conditions,WindDirDegrees,DateUTC
12:53 AM,50.0,46.4,87,29.91,9.0,WSW,6.9,-,N/A,,Clear,240,2013-04-01 05:53:00
1:53 AM,48.9,45.0,86,29.92,10.0,West,3.5,-,N/A,,Clear,270,2013-04-01 06:53:00
2:53 AM,48.0,45.0,89,29.92,9.0,WNW,3.5,-,N/A,,Clear,300,2013-04-01 07:53:00
3:53 AM,48.9,43.0,80,29.95,10.0,North,9.2,-,N/A,,Clear,350,2013-04-01 08:53:00
4:53 AM,46.9,39.0,74,29.98,10.0,North,11.5,-,N/A,,Clear,10,2013-04-01 09:53:00
5:53 AM,43.0,37.0,80,30.02,10.0,NNE,6.9,-,N/A,,Clear,20,2013-04-01 10:53:00
6:53 AM,41.0,33.8,76,30.06,10.0,North,10.4,-,N/A,,Partly Cloudy,10,2013-04-01 11:53:00
7:53 AM,44.1,33.1,65,30.09,10.0,North,10.4,-,N/A,,Clear,10,2013-04-01 12:53:00
8:53 AM,45.0,30.9,58,30.12,10.0,North,12.7,-,N/A,,Overcast,10,2013-04-01 13:53:00
9:53 AM,48.0,32.0,54,30.13,10.0,NNE,11.5,-,N/A,,Clear,30,2013-04-01 14:53:00
10:53 AM,50.0,32.0,50,30.14,10.0,North,10.4,-,N/A,,Partly Cloudy,350,2013-04-01 15:53:00
11:53 AM,52.0,34.0,50,30.14,10.0,North,6.9,-,N/A,,Clear,360,2013-04-01 16:53:00
12:53 PM,52.0,33.1,49,30.15,10.0,NW,12.7,18.4,N/A,,Clear,320,2013-04-01 17:53:00
1:53 PM,55.0,36.0,49,30.14,10.0,NNW,12.7,-,N/A,,Partly Cloudy,340,2013-04-01 18:53:00
2:53 PM,55.0,35.1,47,30.12,10.0,NNE,5.8,-,N/A,,Scattered Clouds,20,2013-04-01 19:53:00
3:53 PM,54.0,32.0,43,30.14,10.0,NNW,15.0,19.6,N/A,,Clear,340,2013-04-01 20:53:00
4:53 PM,54.0,30.0,40,30.14,10.0,NNW,10.4,17.3,N/A,,Clear,340,2013-04-01 21:53:00
5:53 PM,52.0,27.0,38,30.14,10.0,NNE,13.8,-,N/A,,Clear,30,2013-04-01 22:53:00
6:53 PM,48.0,26.1,42,30.15,10.0,North,12.7,-,N/A,,Clear,360,2013-04-01 23:53:00
7:53 PM,44.1,26.1,49,30.16,10.0,NNE,5.8,-,N/A,,Clear,20,2013-04-02 00:53:00
8:53 PM,42.1,26.1,53,30.17,10.0,North,5.8,-,N/A,,Clear,10,2013-04-02 01:53:00
9:53 PM,41.0,27.0,57,30.18,10.0,NE,4.6,-,N/A,,Clear,40,2013-04-02 02:53:00
10:53 PM,41.0,26.1,55,30.19,10.0,Calm,Calm,-,N/A,,Clear,0,2013-04-02 03:53:00
11:53 PM,36.0,28.9,76,30.20,10.0,Calm,Calm,-,N/A,,Clear,0,2013-04-02 04:53:00